Flag Weather past 2 weeks in Maceió, Alagoas, Brazil

Now
73 °F

Passing clouds.


Feels Like: 68 °F
Forecast: 78 / 86 °F
Wind: 3 mph from Northeast

Location: Maceio Aeroporto

Current Time: Nov 20, 2014 at 11:47:22 PM

Latest Report: Nov 20, 2014 at 11:00 PM


Visibility: N/A

Pressure: 29.95 "Hg

Humidity: 100%

Dew point: 73 °F

Location of MaceióLocation

Historic Weather in Maceió — Graph

°F

Maceió temperature yesterday

Maximum temperature yesterday: 86 °F (at 12:00 PM)
Minimum temperature yesterday: 73 °F (at 1:00 AM)
Average temperature yesterday: 79 °F

Past Weeks' High & Low Weather Summary

 TemperatureHumidityPressure
High95 °F (Nov 16, 12:00 PM)100% (Nov 6, 3:00 AM)30.04 "Hg (Nov 6, 3:00 AM)
Low41 °F (Nov 17, 9:00 PM)41% (Nov 16, 12:00 PM)29.77 "Hg (Nov 16, 3:00 PM)
Average79 °F81%29.91 "Hg
* Reported Nov 5 11:00 PM — Nov 20 11:00 PM, Maceió, Weather by CustomWeather, © 2014

Note: Actual official high and low records may vary slightly from our data, if they occured in-between our weather recording intervals... More about our weather records

Advertising

Maceió weather history for previous 24 hours

 ConditionsComfort  
Time TempWeatherWind HumidityBarometerVisibility
11:00 PM
Nov 20
73 °FPassing clouds.3 mph100%29.95 "HgN/A
10:00 PM73 °FPassing clouds.5 mph100%29.98 "HgN/A
9:00 PM75 °FClear.3 mph94%29.98 "Hg10 mi
8:00 PM77 °FClear.5 mph89%29.95 "Hg10 mi
7:00 PM77 °FClear.6 mph89%29.92 "Hg10 mi
6:00 PM79 °FSunny.8 mph84%29.92 "Hg10 mi
5:00 PM82 °FPassing clouds.8 mph70%29.92 "HgN/A
4:00 PM84 °FPassing clouds.12 mph70%29.89 "HgN/A
3:00 PM86 °FScattered clouds.14 mph59%29.89 "HgN/A
2:00 PM90 °FPassing clouds.13 mph52%29.89 "HgN/A
1:00 PM90 °FScattered clouds.13 mph55%29.92 "HgN/A
12:00 PM88 °FPartly sunny.13 mph59%29.95 "HgN/A
11:00 AM88 °FPartly sunny.10 mph59%29.95 "HgN/A
10:00 AM86 °FPartly sunny.9 mph62%29.98 "HgN/A
9:00 AM84 °FPartly sunny.12 mph70%29.98 "HgN/A
8:00 AM82 °FScattered clouds.9 mph74%29.98 "HgN/A
7:00 AM79 °FScattered clouds.9 mph84%29.95 "HgN/A
6:00 AM75 °FSunny.3 mph94%29.92 "Hg10 mi
5:00 AM73 °FClear.2 mph100%29.89 "Hg10 mi
4:00 AM75 °FClear.5 mph94%29.89 "Hg10 mi
3:00 AM75 °FClear.7 mph94%29.89 "Hg10 mi
2:00 AM75 °FClear.3 mph94%29.89 "Hg10 mi
1:00 AM75 °FClear.3 mph94%29.92 "Hg10 mi
12:00 AM75 °FPassing clouds.3 mph94%29.92 "HgN/A
11:00 PM
Nov 19
77 °FPassing clouds.2 mph94%29.95 "HgN/A
Weather by CustomWeather, © 2014

See weather overviewHow to use our weather pages